Location: Asheville, NC
(35.6000°N, 82.5500°W)
Time: 07:09:06
(UTC-04:00)

XW-2D - Pass Details

Date: 15 February 2018
Orbit: 509 x 531 km, 97.5° (Epoch: 21 May)

Event Time Altitude Azimuth Distance (km) Brightness Sun altitude
Rises 05:55:26 0° 24° (NNE) 2,624 ? -17.2°
Reaches altitude 10° 05:57:45 10° 37° (NE) 1,736 ? -16.7°
Maximum altitude 06:00:59 27° 97° (E) 1,003 ? -16.0°
Drops below altitude 10° 06:04:12 10° 157° (SSE) 1,735 ? -15.4°
Sets 06:06:31 0° 169° (S) 2,621 ? -14.9°
